SKYNET 5B

Last updated on Thu Jul 03 2025 00:02:44 GMT+0000 (Coordinated Universal Time)

1 32294U 07056B 25183.50021912 .00000146 00000+0 00000+0 0 9996 2 32294 4.3611 77.7189 0003859 23.9981 24.2548 1.00274327 64699
UTC large
Height (km)
Speed (km/s)
/
Latitude / Longitude
Inclination (degrees)
Orbital Period (minutes)
Azimuth
Elevation
Range (km)
Doppler Factor

Next 0 passes for location: London (51.5072 / 0.1276)

Sorry there are no passes over London.